Location: Arborea
(39.7744°N, 8.5819°E)
Time: 03:27:45
(UTC+00:00)

USA 229 - Pass Details

Date: 30 May 2022
Orbit: 938 x 1274 km, 63.4° (Epoch: 24 May)

Event Time Altitude Azimuth Distance (km) Brightness Sun altitude
Rises 23:10:05 0° 325° (NW) 4,001 7.6 -28.3°
Reaches altitude 10° 23:12:43 10° 326° (NW) 3,082 6.8 -28.3°
Maximum altitude 23:20:12 90° 31° (NNE) 1,231 3.9 -28.3°
Enters shadow 23:21:58 59° 147° (SSE) 1,409 3.9 -28.3°
